Tracking 30743 objects as of 23-Jun-2025
HD Live streaming from Space Station
objects crossing your sky now

ONEWEB-0646

Track ONEWEB-0646 now!
10-day predictions
ONEWEB-0646 is classified as:


NORAD ID: 55810
Int'l Code: 2023-029Q
Perigee: 1,191.3 km
Apogee: 1,194.5 km
Inclination: 87.9 °
Period: 109.1 minutes
Semi major axis: 7563 km
RCS: Unknown
Launch date: March 9, 2023
Source: United Kingdom (UK)
Launch site: AIR FORCE EASTERN TEST RANGE (AFETR)
Your satellite tracking list
Your tracking list is empty




NASA's NSSDC Master Catalog

Two Line Element Set (TLE):
1 55810U 23029Q   25173.82379077  .00000072  00000-0  14754-3 0  9999
2 55810  87.9216  16.4262 0002100  89.0138 271.1235 13.19726404111491
Source of the keplerian elements: AFSPC